Flag for U.S.A. Weather past 2 weeks in Orlando, Florida, U.S.A.

Now
76 °F

Passing clouds.


Feels Like: 75 °F
Forecast: 75 / 92 °F
Wind: 5 mph from Southwest

Location: Orlando Executive Airport

Current Time: Jul 30, 2014 at 6:26:41 AM

Latest Report: Jul 30, 2014 at 5:53 AM


Visibility: 9 mi

Pressure: 29.95 "Hg

Humidity: 97%

Dew point: 75 °F

Location of OrlandoLocation

Historic Weather in Orlando — Graph

°F

Orlando temperature yesterday

Maximum temperature yesterday: 90 °F (at 2:53 PM)
Minimum temperature yesterday: 76 °F (at 5:53 PM)
Average temperature yesterday: 81 °F

Past Weeks' High & Low Weather Summary

 TemperatureHumidityPressure
High93 °F (Jul 18, 2:53 PM)97% (Jul 15, 10:53 PM)30.12 "Hg (Jul 15, 10:53 PM)
Low74 °F (Jul 15, 4:53 AM)37% (Jul 18, 4:53 PM)29.91 "Hg (Jul 16, 5:53 PM)
Average82 °F79%30.03 "Hg
* Reported Jul 15 4:53 AM — Jul 30 4:53 AM, Orlando, Weather by CustomWeather, © 2014

Note: Actual official high and low records may vary slightly from our data, if they occured in-between our weather recording intervals... More about our weather records

Advertising

Orlando weather history for previous 24 hours

 ConditionsComfort  
Time TempWeatherWind HumidityBarometerVisibility
4:53 AM
Jul 30
77 °FClear.3 mph94%29.94 "Hg10 mi
3:53 AM77 °FClear.6 mph96%29.94 "Hg9 mi
2:53 AM77 °FClear.6 mph94%29.95 "Hg8 mi
1:53 AM77 °FPassing clouds.6 mph96%29.96 "Hg7 mi
12:53 AM78 °FClear.7 mph93%29.97 "Hg7 mi
11:53 PM
Jul 29
78 °FClear.7 mph96%29.97 "Hg10 mi
10:53 PM77 °FClear.3 mph96%29.96 "Hg9 mi
9:53 PM77 °FClear.6 mph94%29.95 "Hg10 mi
8:53 PM78 °FSunny.8 mph87%29.94 "Hg10 mi
7:53 PM79 °FPassing clouds.5 mph88%29.95 "Hg10 mi
7:03 PM78 °FBroken clouds.10 mph87%29.95 "Hg10 mi
6:53 PM78 °FThundershowers. Fog.12 mph90%29.93 "Hg6 mi
5:53 PM76 °FThundershowers. Broken clouds.12 mph91%29.97 "Hg10 mi
5:01 PM80 °FThunderstorms. Partly sunny.9 mph81%29.93 "Hg3 mi
3:53 PM89 °FPassing clouds.14 mph59%29.92 "Hg10 mi
2:53 PM90 °FSunny.13 mph59%29.93 "Hg10 mi
1:53 PM86 °FSunny.10 mph67%29.96 "Hg10 mi
12:53 PM84 °FSunny.10 mph67%29.97 "Hg10 mi
11:53 AM79 °FScattered clouds.9 mph88%29.99 "Hg10 mi
11:01 AM80 °FThunderstorms. Broken clouds.21 mph81%30.00 "Hg2 mi
9:53 AM87 °FPassing clouds.10 mph75%29.96 "Hg10 mi
8:53 AM84 °FPassing clouds.12 mph80%29.96 "Hg10 mi
7:53 AM82 °FSunny.8 mph85%29.94 "Hg10 mi
6:53 AM81 °FClear.8 mph88%29.94 "Hg10 mi
Weather by CustomWeather, © 2014

See weather overviewHow to use our weather pages